Regional Weather Roundup
Issued by NWS

Home | Current Version | Previous Version | Text Only | Print | Product List | Glossary Off
Versions: 1 2 3 4 5 6 7 8 9 10 11 12 13 14 15 16 17 18 19 20 21 22 23 24 25 26 27 28 29 30 31 32 33 34 35 36 37 38 39 40 41 42 43 44 45 46 47 48 49 50

783
ASUS44 KLIX 201705
RWRLA
LOUISIANA WEATHER ROUNDUP
NATIONAL WEATHER SERVICE NEW ORLEANS LA
1200 PM CDT SUN APR 20 2014

NOTE: "FAIR" INDICATES FEW OR NO CLOUDS BELOW 12,000 FEET WITH NO
      SIGNIFICANT WEATHER AND/OR OBSTRUCTIONS TO VISIBILITY.
      SKY/WX - SKY CONDITION AND SIGNIFICANT WEATHER.
      TMP - AIR TEMPERATURE.    DP   - DEWPOINT TEMPERATURE.
      RH  - RELATIVE HUMIDITY.  PRES - PRESSURE.
      HX  - HEAT INDEX.         WCI  - WIND CHILL INDEX.

*  THESE STATIONS ARE NOT NWS OR FAA STATIONS AND ARE NOT UNDER
   NWS QUALITY CONTROL.

LAZ040-048-061>063-065-066-069-201800-
SOUTHEAST LOUISIANA

CITY           SKY/WX    TMP DP  RH WIND       PRES   REMARKS
N.O. AUDUBON     N/A     78  58  50 MISG        N/A
N.O. INTL ARPT MOSUNNY   77  62  59 NE9       30.19S
N.O. LAKEFRONT SUNNY     73  59  61 NE7       30.19F
N.O. DOWNTOWN* FAIR      75  57  53 E3        30.20S
SLIDELL        SUNNY     77  54  44 NE7       30.18F
BATON ROUGE    SUNNY     80  48  32 SE7       30.18F
BOOTHVILLE     SUNNY     69  60  73 NE7       30.20R
BELLE CHASSE   MOSUNNY   77  60  55 VRB5      30.18S
BOGALUSA*        N/A     78  53  43 N5        30.20F
GALLIANO*      SUNNY     75  62  62 E7        30.19S
NEW ROADS*     FAIR      77  53  43 N6        30.18F
GONZALES*      FAIR      78  52  40 CALM      30.18S
HAMMOND*       SUNNY     79  55  44 E5        30.21S
HOUMA*         MOSUNNY   79  55  44 NE5       30.19F
PORT FOURCHON* SUNNY     72  63  73 E9        30.20S

$$

LAZ041-044-053-054-201800-
SOUTHWEST LOUISIANA

CITY           SKY/WX    TMP DP  RH WIND       PRES   REMARKS
LAKE CHARLES   SUNNY     78  54  43 E7        30.19S
LAFAYETTE      SUNNY     77  56  48 E3        30.19F
PATTERSON      SUNNY     79  54  41 NE8       30.22F
SALT POINT       N/A     76  63  64 SW6       30.18S
NEW IBERIA     SUNNY     79  55  43 CALM      30.19F
CHENAULT AIRPK NOT AVBL

$$

LAZ027-028-201800-
CENTRAL LOUISIANA

CITY           SKY/WX    TMP DP  RH WIND       PRES   REMARKS
FORT POLK      SUNNY     78  54  43 E5        30.18F
ALEXANDRIA INT SUNNY     77  52  41 VRB3      30.17F
ALEXANDRIA     SUNNY     81  54  39 VRB6      30.18F

$$

LAZ001-002-201800-
NORTHWEST LOUISIANA

CITY           SKY/WX    TMP DP  RH WIND       PRES   REMARKS
SHREVEPORT     MOSUNNY   77  56  48 VRB3      30.17F
BARKSDALE AFB  PTSUNNY   78  54  43 S8        30.17F
DTN SHREVEPORT MOSUNNY   75  55  49 VRB3      30.17F

$$

LAZ014-016-201800-
NORTHEAST LOUISIANA

CITY           SKY/WX    TMP DP  RH WIND       PRES   REMARKS
MONROE         SUNNY     78  49  35 E3        30.19F
TALLULAH       SUNNY     77  57  50 NE7       30.20F

$$




USA.gov is the U.S. government's official web portal to all federal, state and local government web resources and services.